QPF
0.19 0.25 0.27 0.41 0.53 0.52 0.63 0.71 0.56 0.42 0.33 0.31 0.29 0.23 0.20 0.16 0.14 0.14 0.16 0.14 0.07 0.04 0.03 0.03 0.02 0.02 0.01 0.01 0.01 0.01 0.01 0.01 0.01 0.01 0.01 0.01 0.01 0.01 0.01 0.01 0.02 0.02 0.04
0.30 0.36 0.37 0.48 0.69 0.73 0.72 0.65 0.57 0.42 0.34 0.36 0.31 0.21 0.18 0.17 0.14 0.10 0.09 0.07 0.06 0.04 0.04 0.03 0.01 0.01 0.00 0.00 0.00 0.00 0.00 0.00 0.01 0.01 0.01 0.00 0.00 0.00 0.00 0.01 0.01 0.02 0.04
0.36 0.46 0.53 0.64 0.64 0.60 0.59 0.55 0.42 0.30 0.27 0.30 0.28 0.21 0.14 0.12 0.12 0.09 0.09 0.07 0.05 0.05 0.04 0.02 0.01 0.00 0.00 0.00 0.00 0.00 0.00 0.00 0.00 0.01 0.01 0.01 0.00 0.00 0.00 0.01 0.02 0.02 0.04
0.41 0.46 0.49 0.51 0.40 0.32 0.31 0.29 0.23 0.19 0.18 0.17 0.16 0.13 0.12 0.10 0.10 0.09 0.08 0.06 0.05 0.03 0.02 0.02 0.01 0.01 0.01 0.00 0.01 0.00 0.00 0.00 0.00 0.00 0.01 0.01 0.01 0.01 0.01 0.01 0.01 0.02 0.03
0.23 0.26 0.24 0.20 0.23 0.22 0.18 0.16 0.15 0.15 0.14 0.15 0.13 0.11 0.10 0.10 0.10 0.09 0.08 0.06 0.05 0.05 0.04 0.04 0.03 0.03 0.02 0.01 0.01 0.01 0.01 0.01 0.00 0.00 0.00 0.01 0.01 0.02 0.02 0.01 0.01 0.01 0.03
0.14 0.14 0.13 0.12 0.12 0.16 0.17 0.15 0.16 0.20 0.20 0.18 0.15 0.13 0.11 0.09 0.09 0.09 0.08 0.06 0.05 0.05 0.04 0.04 0.04 0.04 0.04 0.03 0.03 0.02 0.01 0.01 0.01 0.01 0.01 0.01 0.01 0.01 0.02 0.01 0.01 0.02 0.02
0.09 0.11 0.12 0.11 0.12 0.12 0.11 0.13 0.14 0.17 0.16 0.12 0.10 0.08 0.07 0.07 0.07 0.06 0.06 0.05 0.04 0.05 0.05 0.05 0.07 0.08 0.08 0.05 0.03 0.03 0.02 0.02 0.01 0.01 0.01 0.01 0.01 0.02 0.02 0.02 0.02 0.02 0.02
0.09 0.09 0.09 0.08 0.07 0.06 0.07 0.07 0.08 0.08 0.08 0.07 0.07 0.06 0.05 0.04 0.04 0.03 0.03 0.02 0.03 0.03 0.04 0.05 0.08 0.09 0.08 0.06 0.04 0.03 0.01 0.01 0.01 0.01 0.01 0.01 0.01 0.01 0.02 0.02 0.03 0.02 0.02
0.05 0.04 0.03 0.02 0.02 0.02 0.03 0.04 0.03 0.03 0.03 0.04 0.04 0.04 0.04 0.03 0.03 0.02 0.02 0.02 0.02 0.02 0.03 0.03 0.04 0.05 0.05 0.05 0.04 0.02 0.01 0.01 0.01 0.01 0.01 0.01 0.00 0.01 0.01 0.02 0.03 0.03 0.02
0.02 0.01 0.01 0.01 0.00 0.00 0.01 0.01 0.01 0.01 0.02 0.02 0.03 0.04 0.03 0.02 0.01 0.01 0.01 0.01 0.01 0.01 0.01 0.02 0.03 0.04 0.05 0.06 0.05 0.04 0.03 0.02 0.01 0.02 0.02 0.01 0.01 0.01 0.01 0.02 0.03 0.03 0.04
0.01 0.00 0.00 0.00 0.00 0.00 0.00 0.00 0.00 0.00 0.00 0.01 0.02 0.04 0.04 0.02 0.01 0.01 0.01 0.01 0.01 0.01 0.01 0.02 0.02 0.02 0.03 0.03 0.04 0.03 0.03 0.03 0.02 0.01 0.02 0.02 0.02 0.01 0.01 0.02 0.02 0.03 0.04
0.00 0.00 0.00 0.00 0.00 0.00 0.00 0.00 0.00 0.00 0.00 0.00 0.00 0.01 0.02 0.02 0.02 0.01 0.01 0.01 0.02 0.02 0.02 0.02 0.03 0.03 0.03 0.03 0.03 0.03 0.03 0.03 0.02 0.02 0.02 0.02 0.02 0.01 0.01 0.01 0.01 0.02 0.04
0.00 0.00 0.00 0.00 0.00 0.00 0.00 0.00 0.00 0.00 0.00 0.00 0.00 0.00 0.00 0.02 0.04 0.04 0.05 0.04 0.03 0.02 0.02 0.02 0.03 0.03 0.04 0.03 0.03 0.03 0.04 0.03 0.03 0.02 0.02 0.02 0.02 0.01 0.01 0.01 0.01 0.02 0.03
0.00 0.00 0.00 0.00 0.00 0.00 0.00 0.00 0.00 0.00 0.00 0.00 0.00 0.00 0.00 0.00 0.00 0.00 0.01 0.02 0.03 0.03 0.02 0.02 0.03 0.04 0.04 0.04 0.04 0.04 0.04 0.04 0.03 0.03 0.02 0.02 0.01 0.01 0.01 0.01 0.01 0.02 0.02
0.00 0.00 0.00 0.00 0.00 0.00 0.00 0.00 0.00 0.00 0.00 0.00 0.00 0.00 0.00 0.00 0.00 0.00 0.00 0.00 0.01 0.02 0.02 0.02 0.03 0.03 0.05 0.04 0.04 0.05 0.05 0.04 0.04 0.04 0.03 0.03 0.02 0.01 0.01 0.01 0.01 0.01 0.02
0.00 0.00 0.00 0.00 0.00 0.00 0.00 0.00 0.00 0.00 0.00 0.00 0.00 0.00 0.00 0.00 0.00 0.00 0.00 0.00 0.01 0.01 0.02 0.03 0.03 0.03 0.04 0.06 0.06 0.07 0.08 0.07 0.06 0.05 0.04 0.03 0.03 0.02 0.02 0.02 0.02 0.02 0.02
0.00 0.00 0.00 0.00 0.00 0.00 0.00 0.00 0.00 0.00 0.00 0.00 0.00 0.00 0.00 0.00 0.00 0.00 0.00 0.00 0.00 0.00 0.01 0.02 0.02 0.03 0.04 0.06 0.07 0.09 0.10 0.10 0.09 0.07 0.05 0.03 0.02 0.02 0.02 0.02 0.02 0.02 0.02
0.00 0.00 0.00 0.00 0.00 0.00 0.00 0.00 0.00 0.00 0.00 0.00 0.00 0.00 0.00 0.00 0.00 0.01 0.01 0.01 0.00 0.00 0.00 0.01 0.02 0.03 0.04 0.04 0.06 0.09 0.10 0.11 0.10 0.08 0.05 0.03 0.02 0.02 0.02 0.02 0.02 0.01 0.01
0.00 0.00 0.00 0.00 0.00 0.00 0.00 0.00 0.00 0.00 0.00 0.00 0.00 0.00 0.01 0.01 0.01 0.01 0.01 0.01 0.01 0.00 0.00 0.00 0.01 0.02 0.03 0.04 0.06 0.08 0.08 0.09 0.10 0.11 0.10 0.06 0.02 0.02 0.03 0.02 0.02 0.02 0.01
0.00 0.00 0.00 0.00 0.00 0.00 0.00 0.00 0.00 0.00 0.01 0.00 0.01 0.01 0.01 0.01 0.01 0.00 0.01 0.01 0.01 0.01 0.01 0.00 0.01 0.01 0.02 0.04 0.07 0.08 0.08 0.10 0.11 0.12 0.13 0.10 0.05 0.03 0.03 0.03 0.02 0.02 0.02
0.00 0.00 0.00 0.00 0.00 0.00 0.00 0.01 0.01 0.01 0.01 0.01 0.01 0.01 0.01 0.01 0.01 0.01 0.01 0.01 0.01 0.01 0.01 0.01 0.01 0.01 0.02 0.03 0.05 0.08 0.11 0.13 0.13 0.14 0.15 0.13 0.09 0.05 0.05 0.04 0.03 0.04 0.04
0.00 0.00 0.00 0.00 0.00 0.00 0.01 0.01 0.01 0.01 0.01 0.01 0.01 0.01 0.01 0.01 0.01 0.01 0.01 0.01 0.01 0.01 0.01 0.01 0.02 0.02 0.02 0.02 0.04 0.08 0.14 0.17 0.16 0.15 0.16 0.15 0.11 0.07 0.05 0.05 0.06 0.06 0.06
0.00 0.00 0.00 0.00 0.00 0.01 0.01 0.02 0.02 0.02 0.02 0.02 0.01 0.01 0.01 0.01 0.01 0.01 0.01 0.01 0.02 0.02 0.02 0.02 0.02 0.03 0.03 0.04 0.05 0.07 0.13 0.19 0.17 0.17 0.18 0.17 0.13 0.09 0.07 0.07 0.08 0.07 0.06
0.00 0.00 0.00 0.01 0.01 0.00 0.01 0.02 0.02 0.02 0.03 0.02 0.02 0.02 0.02 0.01 0.01 0.02 0.02 0.02 0.02 0.02 0.02 0.03 0.03 0.04 0.03 0.04 0.05 0.07 0.11 0.18 0.20 0.20 0.19 0.17 0.15 0.14 0.11 0.09 0.08 0.08 0.09
0.00 0.00 0.01 0.01 0.01 0.01 0.02 0.02 0.02 0.03 0.03 0.03 0.03 0.02 0.02 0.02 0.02 0.02 0.02 0.03 0.02 0.02 0.01 0.02 0.02 0.03 0.05 0.06 0.07 0.07 0.12 0.17 0.21 0.24 0.19 0.16 0.16 0.14 0.10 0.08 0.08 0.09 0.11
0.01 0.01 0.01 0.02 0.02 0.02 0.02 0.02 0.03 0.04 0.04 0.04 0.04 0.03 0.03 0.03 0.02 0.02 0.02 0.02 0.01 0.01 0.00 0.01 0.01 0.02 0.04 0.07 0.08 0.09 0.13 0.20 0.23 0.23 0.20 0.16 0.15 0.12 0.08 0.08 0.08 0.08 0.09
MSLP
1006.46 1006.13 1005.77 1005.38 1005.00 1004.65 1004.37 1004.20 1004.17 1004.31 1004.59 1005.01 1005.52 1006.07 1006.63 1007.15 1007.62 1008.02 1008.38 1008.71 1009.03 1009.37 1009.74 1010.14 1010.54 1010.93 1011.28 1011.57 1011.79 1011.92 1011.98 1011.98 1011.93 1011.85 1011.74 1011.60 1011.42 1011.21 1010.95 1010.65 1010.34 1010.03 1009.77
1007.59 1007.27 1006.93 1006.56 1006.16 1005.78 1005.44 1005.20 1005.09 1005.13 1005.32 1005.66 1006.09 1006.57 1007.05 1007.50 1007.87 1008.18 1008.44 1008.67 1008.90 1009.16 1009.46 1009.81 1010.19 1010.59 1010.96 1011.29 1011.56 1011.76 1011.89 1011.96 1011.98 1011.95 1011.88 1011.76 1011.59 1011.35 1011.05 1010.69 1010.31 1009.92 1009.57
1008.74 1008.46 1008.17 1007.85 1007.49 1007.12 1006.77 1006.49 1006.31 1006.28 1006.39 1006.63 1006.97 1007.36 1007.75 1008.09 1008.36 1008.56 1008.70 1008.81 1008.92 1009.07 1009.28 1009.55 1009.88 1010.23 1010.59 1010.93 1011.23 1011.48 1011.67 1011.82 1011.91 1011.96 1011.96 1011.90 1011.76 1011.54 1011.23 1010.84 1010.41 1009.96 1009.53
1009.77 1009.55 1009.33 1009.08 1008.79 1008.46 1008.13 1007.84 1007.63 1007.53 1007.57 1007.73 1007.98 1008.27 1008.56 1008.81 1008.98 1009.07 1009.10 1009.09 1009.08 1009.11 1009.20 1009.37 1009.60 1009.89 1010.20 1010.52 1010.82 1011.10 1011.34 1011.55 1011.73 1011.86 1011.95 1011.96 1011.89 1011.72 1011.44 1011.05 1010.60 1010.10 1009.60
1010.60 1010.42 1010.27 1010.10 1009.89 1009.63 1009.33 1009.05 1008.82 1008.69 1008.66 1008.75 1008.92 1009.14 1009.35 1009.51 1009.59 1009.60 1009.53 1009.42 1009.30 1009.22 1009.20 1009.25 1009.38 1009.58 1009.82 1010.08 1010.36 1010.64 1010.91 1011.17 1011.42 1011.63 1011.81 1011.91 1011.92 1011.82 1011.60 1011.25 1010.80 1010.28 1009.74
1011.17 1011.03 1010.94 1010.84 1010.70 1010.50 1010.25 1009.99 1009.76 1009.60 1009.54 1009.57 1009.68 1009.84 1009.98 1010.08 1010.11 1010.05 1009.91 1009.73 1009.53 1009.36 1009.24 1009.18 1009.21 1009.30 1009.45 1009.65 1009.88 1010.13 1010.40 1010.68 1010.97 1011.26 1011.50 1011.70 1011.80 1011.78 1011.63 1011.34 1010.92 1010.41 1009.85
1011.52 1011.40 1011.35 1011.31 1011.22 1011.07 1010.86 1010.63 1010.40 1010.23 1010.14 1010.14 1010.20 1010.31 1010.41 1010.47 1010.46 1010.37 1010.19 1009.97 1009.72 1009.47 1009.27 1009.13 1009.06 1009.05 1009.11 1009.22 1009.38 1009.58 1009.82 1010.09 1010.40 1010.72 1011.02 1011.28 1011.46 1011.53 1011.46 1011.25 1010.89 1010.41 1009.86
1011.70 1011.60 1011.58 1011.57 1011.51 1011.39 1011.21 1010.99 1010.77 1010.59 1010.49 1010.46 1010.49 1010.57 1010.64 1010.68 1010.64 1010.53 1010.34 1010.10 1009.82 1009.54 1009.28 1009.07 1008.92 1008.82 1008.78 1008.79 1008.87 1008.99 1009.18 1009.42 1009.71 1010.03 1010.37 1010.67 1010.92 1011.06 1011.07 1010.94 1010.65 1010.24 1009.72
1011.83 1011.73 1011.71 1011.70 1011.66 1011.55 1011.37 1011.16 1010.95 1010.77 1010.65 1010.60 1010.61 1010.66 1010.71 1010.72 1010.68 1010.56 1010.37 1010.12 1009.83 1009.53 1009.24 1008.98 1008.76 1008.58 1008.45 1008.37 1008.35 1008.39 1008.50 1008.68 1008.93 1009.23 1009.57 1009.90 1010.19 1010.39 1010.47 1010.41 1010.21 1009.86 1009.41
1011.97 1011.87 1011.83 1011.81 1011.74 1011.61 1011.44 1011.22 1011.01 1010.82 1010.69 1010.63 1010.62 1010.64 1010.66 1010.66 1010.60 1010.48 1010.29 1010.05 1009.76 1009.45 1009.14 1008.85 1008.57 1008.33 1008.11 1007.94 1007.83 1007.78 1007.80 1007.92 1008.11 1008.38 1008.69 1009.02 1009.33 1009.57 1009.70 1009.71 1009.58 1009.32 1008.94
1012.16 1012.04 1011.97 1011.90 1011.79 1011.64 1011.44 1011.21 1010.99 1010.81 1010.67 1010.59 1010.55 1010.55 1010.55 1010.52 1010.44 1010.31 1010.12 1009.88 1009.61 1009.30 1008.98 1008.66 1008.35 1008.05 1007.77 1007.52 1007.32 1007.18 1007.13 1007.17 1007.30 1007.52 1007.81 1008.12 1008.43 1008.69 1008.85 1008.91 1008.83 1008.63 1008.33
1012.38 1012.23 1012.10 1011.97 1011.80 1011.60 1011.37 1011.13 1010.90 1010.71 1010.57 1010.47 1010.42 1010.38 1010.35 1010.29 1010.20 1010.06 1009.87 1009.64 1009.37 1009.08 1008.76 1008.43 1008.09 1007.74 1007.41 1007.10 1006.83 1006.62 1006.50 1006.48 1006.56 1006.74 1006.99 1007.28 1007.58 1007.83 1008.00 1008.07 1008.02 1007.86 1007.61
1012.54 1012.34 1012.14 1011.92 1011.69 1011.44 1011.17 1010.92 1010.69 1010.50 1010.35 1010.25 1010.17 1010.11 1010.04 1009.96 1009.85 1009.70 1009.52 1009.30 1009.05 1008.77 1008.46 1008.13 1007.78 1007.41 1007.03 1006.67 1006.35 1006.09 1005.93 1005.86 1005.91 1006.06 1006.28 1006.55 1006.82 1007.05 1007.20 1007.25 1007.20 1007.05 1006.82
1012.57 1012.29 1012.00 1011.70 1011.40 1011.09 1010.80 1010.53 1010.30 1010.11 1009.96 1009.85 1009.76 1009.67 1009.59 1009.48 1009.36 1009.21 1009.04 1008.84 1008.62 1008.37 1008.08 1007.76 1007.40 1007.02 1006.62 1006.23 1005.88 1005.59 1005.40 1005.32 1005.35 1005.48 1005.69 1005.93 1006.17 1006.36 1006.47 1006.48 1006.39 1006.20 1005.96
1012.40 1012.02 1011.64 1011.26 1010.88 1010.52 1010.20 1009.93 1009.70 1009.52 1009.37 1009.26 1009.15 1009.05 1008.95 1008.84 1008.71 1008.58 1008.43 1008.26 1008.08 1007.86 1007.60 1007.30 1006.95 1006.57 1006.16 1005.76 1005.39 1005.10 1004.90 1004.82 1004.85 1004.98 1005.18 1005.41 1005.61 1005.75 1005.80 1005.74 1005.58 1005.33 1005.04
1012.01 1011.54 1011.06 1010.60 1010.16 1009.77 1009.43 1009.15 1008.92 1008.75 1008.60 1008.48 1008.37 1008.26 1008.15 1008.03 1007.92 1007.80 1007.68 1007.56 1007.42 1007.24 1007.02 1006.75 1006.42 1006.04 1005.63 1005.23 1004.87 1004.58 1004.39 1004.32 1004.37 1004.51 1004.71 1004.92 1005.09 1005.18 1005.16 1005.02 1004.77 1004.44 1004.09
1011.44 1010.89 1010.33 1009.80 1009.32 1008.90 1008.54 1008.26 1008.04 1007.86 1007.72 1007.59 1007.47 1007.35 1007.23 1007.11 1007.01 1006.92 1006.84 1006.76 1006.66 1006.53 1006.36 1006.11 1005.80 1005.43 1005.03 1004.64 1004.28 1004.00 1003.84 1003.79 1003.86 1004.01 1004.21 1004.41 1004.56 1004.60 1004.52 1004.30 1003.97 1003.56 1003.13
1010.80 1010.18 1009.57 1009.00 1008.48 1008.04 1007.68 1007.38 1007.16 1006.97 1006.82 1006.67 1006.53 1006.40 1006.27 1006.15 1006.06 1006.00 1005.95 1005.91 1005.86 1005.77 1005.62 1005.40 1005.11 1004.76 1004.37 1003.98 1003.64 1003.38 1003.23 1003.21 1003.29 1003.47 1003.67 1003.87 1003.99 1004.00 1003.87 1003.60 1003.20 1002.73 1002.25
1010.20 1009.53 1008.89 1008.29 1007.76 1007.30 1006.93 1006.63 1006.38 1006.18 1005.99 1005.82 1005.66 1005.50 1005.36 1005.24 1005.15 1005.10 1005.08 1005.06 1005.04 1004.98 1004.86 1004.66 1004.39 1004.05 1003.67 1003.30 1002.97 1002.73 1002.60 1002.59 1002.70 1002.88 1003.10 1003.29 1003.41 1003.40 1003.25 1002.95 1002.53 1002.04 1001.53
1009.71 1009.03 1008.38 1007.77 1007.22 1006.75 1006.36 1006.04 1005.77 1005.53 1005.31 1005.10 1004.90 1004.72 1004.55 1004.42 1004.33 1004.29 1004.27 1004.27 1004.27 1004.22 1004.11 1003.93 1003.67 1003.34 1002.98 1002.63 1002.32 1002.09 1001.98 1001.99 1002.11 1002.30 1002.53 1002.72 1002.85 1002.85 1002.70 1002.42 1002.02 1001.55 1001.07
1009.38 1008.71 1008.05 1007.43 1006.87 1006.38 1005.97 1005.61 1005.30 1005.02 1004.77 1004.52 1004.29 1004.07 1003.88 1003.74 1003.63 1003.58 1003.56 1003.56 1003.55 1003.51 1003.41 1003.23 1002.99 1002.68 1002.34 1002.01 1001.73 1001.53 1001.44 1001.46 1001.59 1001.80 1002.03 1002.24 1002.38 1002.41 1002.30 1002.07 1001.73 1001.33 1000.93
1009.19 1008.51 1007.85 1007.22 1006.64 1006.13 1005.67 1005.27 1004.93 1004.61 1004.31 1004.03 1003.77 1003.53 1003.33 1003.16 1003.05 1002.98 1002.94 1002.93 1002.91 1002.86 1002.75 1002.59 1002.36 1002.08 1001.78 1001.49 1001.24 1001.08 1001.02 1001.07 1001.21 1001.43 1001.67 1001.90 1002.06 1002.14 1002.09 1001.94 1001.70 1001.41 1001.12
1009.04 1008.37 1007.69 1007.04 1006.43 1005.88 1005.38 1004.94 1004.55 1004.20 1003.88 1003.58 1003.30 1003.05 1002.84 1002.66 1002.53 1002.45 1002.39 1002.35 1002.31 1002.25 1002.15 1001.99 1001.79 1001.55 1001.30 1001.07 1000.88 1000.76 1000.75 1000.83 1000.99 1001.22 1001.48 1001.73 1001.93 1002.05 1002.08 1002.03 1001.91 1001.75 1001.59
1008.88 1008.18 1007.47 1006.79 1006.14 1005.54 1005.00 1004.52 1004.10 1003.73 1003.40 1003.09 1002.82 1002.58 1002.37 1002.20 1002.06 1001.96 1001.88 1001.81 1001.75 1001.68 1001.57 1001.44 1001.27 1001.09 1000.90 1000.74 1000.63 1000.58 1000.62 1000.74 1000.94 1001.18 1001.45 1001.72 1001.95 1002.13 1002.24 1002.29 1002.28 1002.26 1002.24
1008.61 1007.88 1007.14 1006.40 1005.71 1005.07 1004.49 1003.98 1003.54 1003.17 1002.84 1002.56 1002.31 1002.09 1001.90 1001.73 1001.59 1001.47 1001.37 1001.28 1001.20 1001.11 1001.01 1000.90 1000.78 1000.66 1000.56 1000.48 1000.46 1000.49 1000.60 1000.77 1001.00 1001.26 1001.55 1001.83 1002.09 1002.31 1002.49 1002.62 1002.73 1002.83 1002.95
1008.24 1007.47 1006.67 1005.89 1005.15 1004.47 1003.86 1003.34 1002.90 1002.54 1002.24 1001.99 1001.78 1001.60 1001.43 1001.28 1001.13 1001.00 1000.88 1000.76 1000.65 1000.55 1000.46 1000.37 1000.30 1000.25 1000.24 1000.26 1000.33 1000.45 1000.62 1000.85 1001.11 1001.40 1001.70 1001.99 1002.26 1002.51 1002.74 1002.94 1003.14 1003.34 1003.56
Thickness
5783 5784 5784 5780 5775 5771 5764 5761 5763 5762 5761 5756 5752 5749 5746 5746 5747 5747 5746 5744 5742 5741 5739 5736 5733 5732 5730 5729 5729 5728 5727 5726 5727 5725 5725 5729 5733 5734 5735 5735 5735 5735 5735
5770 5771 5771 5769 5764 5760 5756 5751 5752 5755 5753 5750 5745 5743 5742 5740 5738 5738 5738 5736 5734 5733 5733 5729 5727 5727 5725 5724 5724 5723 5721 5720 5721 5718 5715 5714 5719 5726 5732 5732 5732 5732 5732
5758 5760 5760 5756 5752 5747 5746 5744 5744 5745 5744 5743 5741 5738 5735 5730 5727 5725 5726 5726 5726 5725 5725 5724 5723 5722 5721 5719 5719 5718 5716 5713 5714 5714 5711 5706 5705 5711 5720 5725 5726 5727 5727
5747 5748 5749 5744 5740 5739 5738 5735 5734 5734 5732 5732 5730 5725 5721 5715 5715 5716 5716 5717 5718 5717 5717 5716 5717 5716 5715 5714 5714 5714 5712 5709 5707 5708 5709 5708 5707 5704 5706 5713 5718 5720 5721
5734 5734 5735 5734 5731 5729 5728 5725 5723 5721 5720 5718 5716 5713 5711 5708 5707 5708 5707 5706 5708 5709 5709 5709 5709 5709 5708 5708 5707 5707 5706 5705 5703 5702 5702 5702 5703 5703 5700 5702 5706 5711 5715
5724 5723 5723 5723 5721 5720 5718 5714 5710 5707 5707 5705 5702 5700 5698 5697 5696 5695 5694 5694 5695 5697 5698 5699 5700 5700 5700 5700 5700 5700 5699 5699 5699 5698 5697 5696 5696 5696 5696 5697 5699 5701 5707
5714 5713 5711 5710 5710 5709 5707 5703 5699 5695 5694 5692 5690 5688 5687 5685 5684 5682 5681 5681 5681 5682 5684 5686 5687 5688 5689 5690 5691 5691 5692 5693 5693 5693 5693 5693 5694 5694 5694 5693 5694 5696 5701
5705 5704 5703 5702 5700 5699 5696 5693 5688 5684 5682 5679 5676 5675 5673 5671 5670 5670 5669 5669 5669 5670 5672 5673 5674 5676 5678 5679 5681 5682 5684 5685 5686 5688 5688 5689 5690 5690 5690 5689 5689 5690 5693
5699 5697 5695 5694 5691 5688 5685 5681 5677 5672 5669 5666 5664 5662 5660 5658 5656 5656 5656 5656 5656 5658 5659 5660 5661 5663 5665 5667 5669 5671 5674 5677 5678 5680 5682 5683 5684 5685 5686 5686 5686 5684 5685
5689 5688 5686 5684 5681 5678 5674 5670 5665 5661 5657 5654 5651 5650 5647 5645 5643 5641 5640 5640 5641 5642 5643 5645 5647 5649 5652 5654 5656 5659 5664 5666 5669 5672 5674 5676 5678 5679 5680 5681 5681 5682 5682
5681 5678 5676 5673 5669 5665 5660 5655 5651 5647 5644 5641 5637 5634 5632 5630 5628 5626 5625 5625 5625 5625 5627 5629 5631 5634 5637 5640 5643 5646 5651 5655 5659 5662 5665 5668 5670 5672 5673 5675 5676 5677 5678
5673 5668 5664 5659 5654 5649 5645 5641 5637 5632 5629 5626 5622 5618 5616 5613 5610 5608 5608 5608 5608 5609 5610 5612 5614 5617 5621 5625 5628 5633 5638 5642 5647 5652 5656 5659 5662 5664 5666 5668 5670 5671 5673
5660 5654 5648 5643 5638 5634 5630 5625 5621 5616 5613 5609 5604 5600 5597 5593 5591 5590 5589 5589 5589 5590 5592 5593 5596 5599 5603 5608 5613 5618 5624 5630 5636 5641 5645 5650 5652 5655 5658 5661 5664 5666 5668
5645 5639 5633 5628 5623 5618 5613 5609 5604 5600 5596 5591 5585 5581 5578 5575 5573 5572 5572 5572 5572 5572 5573 5575 5578 5582 5586 5591 5597 5603 5609 5616 5623 5630 5636 5640 5644 5647 5650 5654 5657 5659 5660
5632 5626 5619 5613 5608 5603 5598 5593 5589 5584 5579 5573 5568 5564 5562 5560 5558 5557 5556 5556 5556 5557 5558 5559 5562 5565 5570 5576 5581 5586 5594 5601 5609 5617 5624 5630 5635 5640 5643 5647 5650 5652 5653
5620 5615 5608 5602 5596 5590 5585 5579 5574 5569 5564 5558 5555 5552 5549 5547 5545 5544 5544 5543 5543 5544 5545 5546 5548 5551 5556 5561 5565 5571 5579 5586 5594 5602 5610 5618 5625 5631 5636 5640 5644 5647 5648
5609 5603 5596 5589 5583 5578 5572 5566 5562 5557 5552 5547 5545 5542 5540 5538 5536 5536 5535 5534 5534 5535 5535 5537 5538 5540 5544 5548 5552 5557 5563 5571 5579 5588 5596 5606 5614 5621 5625 5631 5636 5641 5645
5601 5594 5586 5580 5574 5568 5562 5556 5551 5546 5542 5538 5536 5534 5532 5530 5529 5527 5526 5526 5526 5527 5528 5529 5531 5533 5537 5540 5543 5547 5551 5558 5566 5576 5585 5593 5602 5610 5615 5621 5627 5632 5638
5591 5583 5576 5569 5563 5556 5550 5544 5540 5535 5532 5529 5527 5526 5524 5523 5522 5520 5520 5520 5520 5521 5522 5523 5525 5526 5530 5533 5535 5538 5541 5547 5555 5565 5575 5584 5592 5600 5606 5611 5618 5624 5630
5579 5571 5565 5557 5550 5544 5538 5532 5528 5525 5522 5521 5519 5518 5516 5515 5514 5514 5514 5514 5515 5516 5517 5519 5520 5522 5525 5527 5529 5531 5533 5538 5546 5556 5565 5575 5583 5590 5596 5603 5609 5616 5622
5568 5560 5552 5544 5538 5532 5526 5521 5518 5515 5515 5513 5511 5509 5508 5507 5507 5507 5507 5508 5509 5510 5511 5513 5516 5518 5520 5523 5524 5525 5527 5532 5539 5547 5556 5565 5573 5580 5587 5595 5603 5610 5615
5557 5549 5541 5533 5527 5521 5515 5511 5508 5507 5505 5503 5502 5501 5500 5500 5502 5500 5500 5501 5502 5503 5505 5507 5510 5513 5515 5518 5520 5522 5524 5527 5533 5541 5549 5557 5564 5571 5579 5587 5595 5601 5606
5546 5538 5530 5523 5517 5511 5505 5500 5499 5497 5495 5494 5493 5492 5492 5493 5493 5493 5493 5494 5496 5497 5500 5502 5504 5507 5510 5513 5516 5518 5520 5523 5529 5536 5543 5549 5556 5563 5571 5579 5587 5594 5599
5537 5529 5520 5513 5507 5502 5497 5492 5490 5488 5486 5485 5485 5485 5485 5486 5487 5488 5489 5489 5491 5493 5495 5498 5500 5503 5505 5508 5510 5512 5515 5520 5525 5530 5536 5542 5548 5557 5564 5572 5580 5587 5594
5528 5520 5510 5504 5499 5494 5490 5487 5484 5481 5479 5479 5479 5479 5479 5480 5481 5483 5485 5487 5489 5491 5493 5496 5498 5500 5502 5506 5507 5509 5513 5517 5521 5525 5530 5536 5542 5551 5559 5566 5574 5581 5586
5521 5513 5505 5498 5493 5489 5485 5482 5479 5476 5474 5473 5473 5474 5474 5476 5478 5479 5483 5486 5488 5492 5494 5496 5498 5500 5502 5503 5504 5506 5509 5512 5516 5521 5528 5535 5541 5549 5556 5562 5569 5575 5580